Regional Weather Roundup
Issued by NWS

Home | Current Version | Previous Version | Graphics & Text | Print | Product List | Glossary On
Versions: 1 2 3 4 5 6 7 8 9 10 11 12 13 14 15 16 17 18 19 20 21 22 23 24 25 26 27 28 29 30 31 32 33 34 35 36 37 38 39 40 41 42 43 44 45 46 47 48 49 50
000
ASUS43 KMKX 290659
RWRWI

WISCONSIN REGIONAL WEATHER ROUNDUP
NATIONAL WEATHER SERVICE MILWAUKEE/SULLIVAN WI
100 AM CST THU JAN 29 2015

NOTE: "FAIR" INDICATES FEW OR NO CLOUDS BELOW 12,000 FEET WITH NO
SIGNIFICANT WEATHER AND/OR OBSTRUCTIONS TO VISIBILITY.

WIZ001-002-006>008-014>016-023>028-290800-
NORTHWEST WISCONSIN

CITY           SKY/WX    TMP DP  RH WIND       PRES   REMARKS
SUPERIOR ARPT  CLOUDY    30  28  90 W7        29.85S FOG     WCI  23
ASHLAND        CLOUDY    28  27  96 W6        29.84S FOG     WCI  22
HAYWARD        FOG       27  25  92 CALM      29.82S VSB 1
SIREN          CLOUDY    29  29  97 NW7       29.86S FOG     WCI  22
CUMBERLAND     FOG       28  27  93 NW5       29.82F VSB 1   WCI  23
RICE LAKE      FOG       28  27  97 W3        29.85S VSB 1/2
CHETEK         CLOUDY    27  27  99 CALM      29.83S FOG
LADYSMITH      CLOUDY    28  24  87 NW6       29.83S WCI  21
EAU CLAIRE     CLOUDY    28  25  88 NW5       29.82S FOG     WCI  23
MENOMONIE      CLOUDY    29  28  95 NW5       29.84R FOG     WCI  24
NEW RICHMOND   CLOUDY    29  29 100 NW9       29.85S FOG     WCI  21
OSCEOLA        CLOUDY    30  30 100 NW7       29.89S FOG     WCI  23
$$

WIZ003>005-009-010-017-018-290800-
NORTH CENTRAL WISCONSIN

CITY           SKY/WX    TMP DP  RH WIND       PRES   REMARKS
MANITOWISH WTR CLOUDY    26  21  82 CALM      29.77S
ARBOR VITAE    CLOUDY    27  22  82 SW3       29.77F
WOODRUFF       CLOUDY    27  22  82 SW3       29.77F
RHINELANDER    CLOUDY    25  22  88 SW5       29.77F FOG     WCI  19
EAGLE RIVER    CLOUDY    26  20  80 CALM      29.76F
LAND O LAKES   CLOUDY    27  22  83 CALM      29.77F
PHILLIPS       CLOUDY    26  23  89 CALM      29.78S
TOMAHAWK       CLOUDY    26  22  86 CALM      29.78F FOG
MEDFORD        CLOUDY    25  23  94 CALM      29.78S FOG
MERRILL        CLOUDY    26  25  95 CALM      29.78F FOG
$$

WIZ029-030-035-036-043>047-290800-
CENTRAL WISCONSIN

CITY           SKY/WX    TMP DP  RH WIND       PRES   REMARKS
WAUSAU         CLOUDY    25  24  96 CALM      29.77F FOG
MOSINEE        CLOUDY    27  27 100 CALM      29.79F FOG
MARSHFIELD     CLOUDY    27  25  92 CALM      29.78F FOG
STEVENS POINT  CLOUDY    25  22  87 CALM      29.80S FOG
WAUPACA        CLOUDY    31  24  74 CALM      29.81S
WAUTOMA        NOT AVBL
WISC RAPIDS    CLOUDY    27  23  85 CALM      29.81R FOG
CAMP DOUGLAS   NOT AVBL
$$

WIZ011>013-019>022-031-037>040-048>050-290800-
NORTHEAST WISCONSIN

CITY           SKY/WX    TMP DP  RH WIND       PRES   REMARKS
ANTIGO         CLOUDY    25  23  93 SW5       29.77F FOG     WCI  19
SHAWANO        CLOUDY    32  25  77 S3        29.80F
OCONTO         CLOUDY    31  27  84 MISG      29.81F
STURGEON BAY   CLOUDY    32  27  80 S9        29.83F WCI  24
GREEN BAY      CLOUDY    31  25  78 S5        29.81F WCI  26
MANITOWOC      NOT AVBL
APPLETON       CLOUDY    30  23  74 SE3       29.80F
CLINTONVILLE   CLOUDY    30  23  74 SE3       29.80F
OSHKOSH        MIX PCPN  31  24  75 SE3       29.79F
$$

WIZ032>034-041-042-053>061-290800-
SOUTHWEST WISCONSIN

CITY           SKY/WX    TMP DP  RH WIND       PRES   REMARKS
LA CROSSE      CLOUDY    32  28  85 N6        29.81S FOG     WCI  26
SPARTA         CLOUDY    30  29  98 CALM      29.81R FOG
VIROQUA        CLOUDY    31  31 100 N5        29.77R WCI  26
BOSCOBEL       CLOUDY    34  28  79 CALM      29.78R
PRAIRIE DU CHI CLOUDY    33  28  83 CALM      29.77S
PLATTEVILLE    CLOUDY    32  30  92 N6        29.73R WCI  26
$$

WIZ056-057-062-063-064-067-068-290800-
SOUTH CENTRAL WISCONSIN

CITY           SKY/WX    TMP DP  RH WIND       PRES   REMARKS
REEDSBURG      CLOUDY    31  27  85 CALM      29.77S
BARABOO/DELLS  CLOUDY    31  27  84 CALM      29.77S
LONE ROCK      NOT AVBL
MINERAL POINT  CLOUDY    34  30  86 NE3       29.74R
MADISON        CLOUDY    33  26  75 CALM      29.76F
MIDDLETON      CLOUDY    33  27  79 CALM      29.76S
WATERTOWN      MIX PCPN  32  27  80 CALM      29.77F
MONROE         CLOUDY    30  28  93 E3        29.73S
JANESVILLE     PTCLDY    32  28  86 SE6       29.74F WCI  26
$$

WIZ051-052-058>065-066-070>072-290800-
SOUTHEAST WISCONSIN

CITY           SKY/WX    TMP DP  RH WIND       PRES   REMARKS
MILWAUKEE      CLOUDY    33  24  69 S8        29.78F WCI  26
WAUKESHA       CLOUDY    30  23  74 SE5       29.78F WCI  25
MILWAUKEE/TIMM CLOUDY    32  23  69 SE6       29.80F WCI  26
RACINE         CLOUDY    34  25  69 S12       29.80F WCI  25
BURLINGTON     MOCLDY    33  24  71 S7        29.77F WCI  27
KENOSHA        CLOUDY    35  24  64 S9        29.78F WCI  28
FOND DU LAC    CLOUDY    31  25  78 CALM      29.79F
SHEBOYGAN      LGT SNOW  32  26  78 S9        29.80F WCI  24
WEST BEND      CLOUDY    32  23  69 CALM      29.79F
JUNEAU         CLOUDY    31  26  84 E3        29.79F
$$

LSZ147-162-290800-
LAKE SUPERIOR

STATION/POSITION TIME  TEMP    WIND        PRES    WAVE
                       AIR SEA DIR/SP/G            HT/PER
                 (UTC) (F)     (DEG/KT/KT) (MB)    (FT/S)
DEVILS ISLAND    0600   31     270/ 14/ 16 1010.9F
PORT WING        0640   31     260/  8/ 12 1010.8S
SAXON HARBOR     0600   30     220/  4/  8 1010.2F
$$

LMZ867-665-643>646-290800-
LAKE MICHIGAN

STATION/POSITION TIME  TEMP    WIND        PRES    WAVE
                       AIR SEA DIR/SP/G            HT/PER
                 (UTC) (F)     (DEG/KT/KT) (MB)    (FT/S)
NORTHPORT PIER   0612   32     150/  7/ 17 1010.8F
SISTER BAY       0613   33     150/ 13/ 16   N/A
KEWAUNEE LAKESHO 0600   33     180/ 16/ 19 1009.5F
SHEBOYGAN LAKESH 0600   34     170/ 18/ 20 1010.7F
PORT WASHINGTON  0600   35     170/ 13/ 18 1010.5
MILWAUKEE LAKESH 0600   33     160/ 12/ 14   N/A
KENOSHA   LAKESH 0600   33     170/ 16/ 18 1009.5F
$$

TC  - TEMPERATURE IN CELSIUS
VSB - VISIBILITY IN STATUTE MILES
WCI - WIND CHILL INDEX
HX  - HEAT INDEX



USA.gov is the U.S. government's official web portal to all federal, state and local government web resources and services.